ATLAS 5 CENTAUR DEB, 43976

Orbit data source: Space-Track

ATLAS 5 CENTAUR DEB, 43976 is space debris in HEO originally from a launch on Wed, 17 Sep 2014 UTC launched from the Air Force Eastern Test Range (AFETR). Debris objects in space refer to the collection of defunct objects orbiting the Earth. Examples of debris include non-operational satellites, rocket bodies, and fragments generated from explosions, collisions, or faulty payload assembly.

Loading next visibility...
Identifier
43976, 2014-055AF
Orbit
HEO
Last TLE update
2 days ago
Origin
Manufacturer
Unknown
Mission
Spacecraft
Bus & Motor
Unknown
Mass
Unknown
Launch date (UTC)
2014-09-17 (11 years ago)
Launch vehicle
Unknown
Launch site
Air Force Eastern Test Range (AFETR)
Object type
Payload
Rocket body
Debris
Shape & HBR
Unknown
Radar Cross Section
Small (<0.1 m²)

Expand to show TLE details & history

TLE from 2 days ago
0 ATLAS 5 CENTAUR DEB
1 43976U 14055AF  25127.51944741 -.00000035  00000-0  00000-0 0  9995
2 43976  19.4625 188.7122 4850443  83.6570 327.3346  1.83492951 44754
Epoch: 2025-05-07T12:28Z
Definitive object data (Epoch: 2025-05-07T12:28:00.256Z)
Latitude
0.00003°
Longitude
136.20395°
Altitude
14,050.908 km
Speed
4.988 km/s
True Right ascension
12h 35m 13s
True Declination
0° 00' 00"
Sunlit
Object was in daylight at TLE epoch
Visualization TLE readout
Latitude
-2.21471°
Longitude
-37.68921°
Altitude
17,789.926 km
Speed
4.341 km/s
Apparent Right ascension
01h 16m 47s
Apparent Declination
-9° 54' 36"
Sunlit
Object is in daylight
Visualization observer readout
Local Sidereal Time
14:43:10
Azimuth
38.507° NE
Elevation
-54.383°
Doppler factor
1
Orbital elements
Apogee altitude
35,477.948 km
Perigee altitude
8,135.928 km
Semi-major axis
28,185.075 km
Eccentricity
0.4850443
Inclination
19.4625°
RAAN
188.7122°
Arg. of periapsis
83.657°
True anomaly
276.32703°
Mean anomaly
327.3346°
Eccentric anomaly
304.40534°
Mean motion
0.45868 °/min
BSTAR
Unknown
Orbital period
784.85 mins
Loading maneuver chart data...
Loading SW <> Apogee altitude chart data...
Loading historical data...
Loading historical data...
Loading historical data...
Loading historical data...
Loading historical data...
Loading historical data...
Loading historical data...

ATLAS 5 CENTAUR DEB Visibility forecast

Observer location: undefined°, undefined°

Span
Click to sort rows by Start time (UTC) header in descending order
Start Az.
Max El. time (UTC)
Max El. Az.
Max El.
End time (UTC)
End Az.
392 mins2025-05-09 19:02:19.141Z251.97° W2025-05-09 20:26:19.141Z221.045° SW18.893°2025-05-10 01:34:19.141Z221.884° SW
158 mins2025-05-10 03:56:19.141Z226.253° WSW2025-05-10 06:34:19.141Z162.406° S35.731°2025-05-10 06:34:19.141Z162.406° S
|